Torna al catalogo

CZ-6A DEB

AttivoPO
NORAD 60982·DEBRIS·🇨🇳 China

Lanciato Aug 6, 2024 da Taiyuan Satellite Launch Center

Loading…

Prossimi Passaggi (prossime 24 ore)

TLE

AggiornatoSource: Space-Track

Epoca: Sep 14, 2026, 12:20 UTC

1 60982U 24140MH  26257.51429273  .00002805  00000-0  90237-3 0  9990
2 60982  89.2666 287.4832 0036093 276.5558  83.1535 14.38771027108067

Traccia CZ-6A DEB in tempo reale con AllMySat

Download on the App Store